Regional Weather Roundup
Issued by NWS

Home | Current Version | Previous Version | Graphics & Text | Print | Product List | Glossary On
Versions: 1 2 3 4 5 6 7 8 9 10 11 12 13 14 15 16 17 18 19 20 21 22 23 24 25 26 27 28 29 30 31 32 33 34 35 36 37 38 39 40 41 42 43 44 45 46 47 48 49 50
000
ASUS43 KDTX 162101
RWRMI
MICHIGAN HOURLY REGIONAL WEATHER ROUNDUP
NATIONAL WEATHER SERVICE DETROIT/PONTIAC MI
500 PM EDT WED APR 16 2014

NOTE: "FAIR" INDICATES FEW OR NO CLOUDS BELOW 12,000 FEET WITH NO
SIGNIFICANT WEATHER AND/OR OBSTRUCTION TO VISIBILITY.

MIZ047>049-052>055-059>063-066>070-074>076-081>083-162200-
SOUTHEAST LOWER MICHIGAN

CITY           SKY/WX    TMP DP  RH WIND       PRES   REMARKS
ADRIAN         MOSUNNY   43  21  41 S12G21    30.35F
ALMA           MOSUNNY   44  19  36 SE10G16   30.33S
ANN ARBOR      FAIR      41  21  44 S15G22    30.37F
BAD AXE        MOSUNNY   39  22  51 SE9       30.39S WCI  33
CARO           MOSUNNY   45  15  30 SE9G16    30.36F
DETROIT CITY   PTSUNNY   41  18  39 SE12      30.42S
DETROIT        CLOUDY    39  16  39 E12G20    30.41F WCI  32
FLINT          SUNNY     45  16  31 SE13      30.36F
GROSSE ILE     MOSUNNY   39  19  45 SE7       30.40F WCI  34
HILLSDALE      MOSUNNY   44  19  37 SE13G22   30.32S
HOWELL         SUNNY     43  17  34 S13G20    30.34S

CITY           SKY/WX    TMP DP  RH WIND       PRES   REMARKS
JACKSON        SUNNY     43  17  35 S13G21    30.32F
LAMBERTVILLE   MOSUNNY   45  27  49 E10G17    30.38F
LANSING        SUNNY     44  16  32 S16       30.33S
LAPEER         FAIR      41  22  45 SE12G20   30.37S
MASON          SUNNY     44  21  40 S10G22    30.32F
MONROE         MOSUNNY   39  23  52 SE13      30.38F WCI  32
MT. CLEMENS    PTSUNNY   39  21  48 SE18      30.40F WCI  29
PONTIAC        MOSUNNY   39  19  44 SE15      30.36S WCI  31
PORT HOPE        N/A     36  23  59 SE18      30.40S WCI  26
PORT HURON     MOSUNNY   39  21  48 S12G17    30.42S WCI  32
TRI CITIES     SUNNY     45  19  35 SE12G17   30.36S
TROY           PTSUNNY   40  20  44 S12       30.40F WCI  34
SAGINAW HB     MOSUNNY   45  19  36 SE9       30.35F
YPSILANTI      FAIR      44  20  38 SE15      30.39F
$$
MIZ043>046-050>051-056>058-064>065-071>073-077>080-162200-
SOUTHWEST LOWER MICHIGAN

CITY           SKY/WX    TMP DP  RH WIND       PRES   REMARKS
BATTLE CREEK   MOSUNNY   45  18  34 SE17G24   30.30F
BENTON HARBOR  PTSUNNY   49  20  31 SE10G26   30.25F
BIG RAPIDS     MOSUNNY   44  21  40 S17G23    30.29F
COLDWATER      MOSUNNY   44  20  38 S12       30.31S
FREMONT        CLOUDY    46  18  32 SE10G18   30.26F
HOLLAND        MOSUNNY   50  21  32 SE17G24   30.27F
GRAND RAPIDS   CLOUDY    48  20  32 SE18G29   30.28F
IONIA          FAIR      46  20  35 SE16      30.30F
KALAMAZOO      MOSUNNY   46  18  32 S12G23    30.28F
LUDINGTON      PTSUNNY   43  21  42 SE12G17   30.27F
MARSHALL       SUNNY     43  18  35 S10G21    30.30F
MOUNT PLEASANT PTSUNNY   44  21  40 SE9       30.33S
MUSKEGON       PTSUNNY   48  18  30 SE17      30.26F
SOUTH HAVEN    MOSUNNY   48  20  32 S10G21    30.26S
$$
MIZ016>042-162200-
NORTHERN LOWER MICHIGAN

CITY           SKY/WX    TMP DP  RH WIND       PRES   REMARKS
ALPENA         MOSUNNY   37  21  52 SE14      30.37S WCI  28
BEAVER ISLAND  CLOUDY    36  19  49 SW6G16    30.35R WCI  31
BELLAIRE       CLOUDY    41  18  39 S8        30.32S
CADILLAC       CLOUDY    38  21  51 SE12G17   30.28F WCI  30
CHARLEVOIX     CLOUDY    37  19  49 N5        30.37R WCI  33
FRANKFORT      CLOUDY    33  31  93 NE6       30.31F WCI  27
GAYLORD        CLOUDY    39  15  37 S8        30.30S WCI  33
GRAYLING       CLOUDY    39  12  33 S8        30.32S WCI  34
HARBOR SPRINGS CLOUDY    41  13  31 S3        30.32S
HOUGHTON LAKE  CLOUDY    40  17  39 S12       30.32R WCI  33
MANISTEE       CLOUDY    43  19  39 S5        30.29S
OSCODA         SUNNY     35  24  62 SE13      30.40R WCI  27
PELLSTON       CLOUDY    36  20  52 NE15      30.34F WCI  27
ROGERS CITY    MOSUNNY   38  27  64 E12G17    30.36F WCI  31
TRAVERSE CITY  FLURRIES  39  23  52 VRB3      30.32R
$$
MIZ007>008-015-162200-
EASTERN UPPER MICHIGAN

CITY           SKY/WX    TMP DP  RH WIND       PRES   REMARKS
KINROSS        CLOUDY    36  14  41 S5        30.35F WCI  32
MACKINAC ISLAN PTSUNNY   31  23  71 E10G20    30.35F WCI  23
NEWBERRY       CLOUDY    32  16  51 S9        30.34S WCI  24
S. S. MARIE    CLOUDY    35  14  42 SE6       30.35F WCI  30
MUNISING         N/A     32  23  69 S8        30.31F WCI  25
$$
MIZ004>006-011>014-085-162200-
CENTRAL UPPER MICHIGAN

CITY           SKY/WX    TMP DP  RH WIND       PRES   REMARKS
MANISTIQUE     LGT SNOW  30  26  86 S5        30.34R WCI  25
ESCANABA       CLOUDY    30  28  93 SE12      30.28F WCI  21
MENOMINEE      CLOUDY    34  28  80 SE17      30.24F WCI  23
SAWYER-GWINN   LGT SNOW  28  27  93 SE10      30.25F VSB 3/4 WCI  19
$$
MIZ001>003-009>011-084-162200-
WESTERN UPPER MICHIGAN

CITY           SKY/WX    TMP DP  RH WIND       PRES   REMARKS
IRON MOUNTAIN  MIX PCPN  30  26  85 SE13G20   30.20S FOG     WCI  20
HOUGHTON       LGT SNOW  28  24  85 E9        30.23F VSB 1   WCI  19
COPPER HARBOR    N/A     30  23  75 S6        30.28F WCI  24
IRONWOOD       CLOUDY    28  23  80 E12       30.09S VSB 3/4 WCI  18
$$

ABBREVIATIONS USED IN REMARKS
   TC - TEMPERATURE IN CELSIUS
  WCI - WIND CHILL INDEX
   HX - HEAT INDEX
  VSB - VISIBILITY




USA.gov is the U.S. government's official web portal to all federal, state and local government web resources and services.